Vorticity
5 5 8 6 7 8 3 -0 2 2 6 7 5 5 5 5 4 5 4 4 6 8 9 10 11 10 9 9 6 6 6 8 9 10 11 11 12 13 14 12 10 7 5 5 4 4 4 5 6 6 6 6 7 7 8 8 8 9 10 11 10 9 11 11 10 10 10 11 11 10 10 11 10 10 8 8 9 8 8 10 9 8 7 6 7 9 10 11
1 0 13 21 16 16 13 4 5 3 4 6 4 6 7 8 6 6 4 5 10 14 14 10 10 10 9 9 7 8 10 12 13 14 15 14 12 10 7 5 4 4 4 5 5 6 5 6 6 6 7 7 8 8 9 9 9 10 9 9 8 7 9 7 7 7 7 7 8 9 9 10 10 10 10 11 11 11 15 15 12 9 7 6 7 7 7 8
2 0 4 19 13 15 21 11 10 8 8 9 8 8 9 10 7 8 8 10 13 15 14 9 9 9 9 11 12 13 14 13 12 10 9 7 5 4 4 5 5 6 6 6 6 6 6 7 8 8 9 9 8 8 8 7 7 8 6 6 4 4 5 4 5 5 5 5 5 6 6 6 6 7 7 7 7 11 18 14 7 8 9 10 9 9 9 9
8 8 3 12 0 2 16 14 14 10 12 15 13 11 9 11 10 11 12 12 13 12 12 11 11 13 14 15 13 11 9 7 6 5 4 4 4 5 6 6 5 6 6 6 6 8 8 9 10 9 8 7 6 5 5 5 5 6 6 5 4 5 7 6 6 6 6 5 5 5 5 6 6 6 5 6 4 6 10 4 0 5 7 7 8 10 13 14
16 16 15 18 9 7 12 14 14 10 11 13 13 11 10 12 11 12 12 13 13 12 13 15 16 15 13 10 6 5 5 5 4 4 4 4 6 6 6 5 5 6 6 8 9 10 9 9 7 6 5 4 4 5 5 5 5 6 6 6 5 6 6 6 6 6 6 6 7 6 7 7 7 8 8 10 8 3 2 1 1 4 4 6 7 8 9 10
18 18 15 13 13 13 13 14 13 9 9 9 10 10 10 12 11 12 13 13 13 13 14 13 12 9 6 5 5 5 6 6 4 4 5 6 7 6 6 6 6 8 9 9 8 7 6 5 5 4 5 5 5 5 5 5 5 6 5 5 6 7 7 6 7 7 7 7 7 7 8 8 8 9 10 12 12 6 4 6 7 8 7 7 7 7 6 5
12 11 10 10 11 11 12 12 10 8 7 8 9 8 10 10 10 11 10 10 10 10 9 7 6 5 5 6 5 5 5 6 5 6 7 6 6 6 7 9 10 10 8 6 5 5 5 4 5 5 6 5 5 4 4 5 6 6 6 8 9 9 9 9 10 9 9 9 9 10 10 11 12 12 15 14 10 7 8 10 12 12 11 10 9 8 7 7
7 7 6 8 8 7 10 9 8 9 8 8 8 8 9 8 9 8 6 6 6 7 6 5 6 5 5 5 4 5 5 6 6 6 6 6 7 9 10 10 8 6 4 4 5 5 5 5 6 5 5 4 5 5 6 7 8 9 9 10 10 10 11 11 11 10 10 11 11 12 13 17 18 16 16 12 9 12 15 16 16 15 14 14 13 13 12 12
8 7 6 8 7 5 6 7 7 8 8 7 7 8 7 6 7 7 6 6 6 6 6 6 5 4 4 4 5 5 5 6 6 6 6 9 11 10 8 6 4 3 4 6 6 6 6 5 5 4 4 5 6 7 8 9 10 10 9 10 10 10 11 10 10 9 10 11 11 11 15 19 17 15 13 9 13 19 20 19 18 19 20 20 20 20 20 18
12 11 9 9 8 7 7 7 8 7 6 6 6 6 5 5 4 5 5 5 5 5 4 4 4 4 4 5 5 5 7 7 7 8 9 10 8 5 4 3 4 5 6 7 6 5 5 4 3 4 6 8 8 9 10 10 9 9 9 11 11 11 11 9 10 10 10 11 11 10 12 13 9 9 7 6 11 13 11 12 12 13 14 14 14 14 15 15
12 13 14 11 8 10 9 7 8 7 5 5 4 4 3 4 4 4 4 4 4 4 4 4 4 5 5 6 6 7 7 7 9 10 8 7 4 3 3 4 6 7 7 6 5 4 3 4 5 7 9 9 9 9 10 8 8 8 10 12 10 10 10 9 10 11 10 11 11 10 12 13 8 8 6 5 6 4 5 6 5 6 4 4 4 4 5 6
11 13 14 14 11 11 11 8 7 6 5 4 4 3 3 4 4 4 4 4 4 4 4 5 5 6 6 7 7 7 7 9 10 7 5 5 4 4 5 6 7 7 6 4 3 4 5 6 8 10 9 9 9 9 8 8 9 8 9 10 9 9 9 8 9 9 10 11 10 11 17 17 11 12 12 11 10 10 12 12 11 11 8 8 7 8 9 8
8 12 13 14 14 14 12 10 8 6 5 5 5 5 5 5 5 5 4 5 5 5 5 6 7 7 7 7 7 8 9 9 6 4 5 5 4 5 6 7 7 5 3 2 4 5 7 9 10 10 9 9 9 8 8 9 8 7 8 8 7 9 8 6 8 9 9 10 9 9 15 13 10 13 12 11 12 12 15 15 14 13 13 14 14 14 15 15
6 11 13 12 13 13 12 11 9 8 7 6 6 6 6 6 6 6 5 6 5 6 7 7 7 7 7 8 8 9 9 6 4 4 6 5 5 7 7 6 5 3 2 3 6 8 9 10 10 9 9 8 8 8 9 8 6 6 8 7 7 8 7 6 7 9 9 9 8 8 12 11 8 11 9 9 11 11 12 12 11 11 12 13 14 14 13 14
7 9 13 13 10 10 11 10 9 9 8 7 8 7 7 7 7 7 7 7 7 8 8 7 7 7 7 9 9 8 6 4 4 6 7 6 7 8 7 5 3 2 4 6 9 10 10 10 9 9 8 8 8 8 8 6 5 7 7 7 7 8 6 6 7 9 8 7 7 7 10 12 9 8 8 7 9 9 8 10 12 13 12 12 12 12 10 9
8 7 11 14 11 9 9 9 9 8 8 8 8 8 8 8 8 9 8 9 9 9 7 7 8 7 9 10 6 5 4 3 5 7 7 7 8 7 5 3 2 4 7 9 11 11 10 9 9 9 8 8 8 8 6 6 6 6 7 7 7 7 7 6 7 8 7 6 6 5 7 11 9 6 7 6 6 7 8 12 14 11 8 7 6 6 6 7
9 8 10 13 12 10 8 8 8 7 8 8 8 9 9 10 10 9 9 9 9 8 8 8 8 9 11 8 3 3 3 4 6 7 8 8 7 5 3 2 4 7 9 11 11 11 10 9 9 8 8 8 7 7 6 6 7 6 7 7 7 7 7 6 6 7 6 5 6 5 6 9 7 5 7 5 4 8 12 11 7 3 2 2 4 6 7 9
8 9 11 12 13 12 8 8 8 7 7 8 8 8 9 10 11 10 9 8 7 8 8 7 9 12 9 4 3 4 4 6 7 7 8 8 6 3 2 3 6 9 10 11 10 10 9 8 8 8 8 8 7 7 7 6 7 6 6 6 6 7 7 5 5 6 5 4 5 4 4 5 4 3 5 7 7 9 11 5 -3 -3 -1 1 4 7 8 10
6 10 11 12 13 12 10 8 8 8 7 7 8 8 9 10 10 10 8 8 8 8 7 9 13 11 5 3 4 4 5 8 7 8 8 7 5 2 2 4 7 10 10 10 10 8 8 8 8 9 8 7 7 7 7 6 6 6 6 6 5 6 6 4 4 4 3 3 4 3 2 3 3 3 1 5 10 7 4 3 -1 -1 1 1 2 3 6 8
5 9 10 11 12 11 10 8 8 9 8 8 8 8 9 10 9 9 8 8 7 7 10 13 12 6 3 4 3 4 8 8 6 8 8 6 3 2 3 5 6 9 9 10 10 9 8 7 7 8 7 7 7 7 6 5 6 6 5 5 4 5 5 4 3 3 3 3 2 1 2 0 1 4 0 3 9 5 2 4 3 2 2 1 2 2 2 2
4 8 9 10 11 10 9 8 9 10 9 9 8 8 9 9 9 9 9 7 8 11 14 11 6 2 3 3 3 6 8 6 7 10 8 4 2 3 4 5 6 7 7 9 9 8 8 7 7 7 6 6 6 6 4 5 6 5 4 3 3 5 4 3 3 3 3 3 1 1 2 -0 -0 3 0 1 7 4 2 3 1 1 2 2 2 1 0 -2
4 7 9 9 10 10 9 9 9 9 10 9 8 8 10 10 9 8 7 10 14 15 12 5 1 2 3 3 5 8 7 6 9 10 6 4 3 4 4 5 6 5 6 8 7 7 8 7 6 5 5 6 6 4 4 5 5 4 3 2 2 4 4 2 3 4 4 3 1 1 3 1 1 1 -1 1 5 3 0 1 1 1 -1 -2 -1 1 1 -1
4 6 9 8 9 11 10 10 9 9 10 9 9 10 11 10 8 7 8 12 15 13 8 3 2 3 3 4 6 6 6 6 8 7 6 5 4 4 5 5 5 4 5 5 5 7 8 6 4 4 5 5 4 4 4 5 3 2 2 2 2 3 3 3 3 3 3 3 2 2 3 3 1 0 -0 1 3 1 -0 1 3 4 1 -1 1 4 4 2
5 7 7 7 8 10 11 10 9 9 9 10 10 9 9 8 7 10 11 11 12 9 6 4 2 3 4 6 6 5 5 6 7 9 7 5 4 5 6 4 3 5 4 3 4 6 6 4 4 4 4 3 3 4 5 3 2 3 2 1 2 2 2 3 3 3 2 2 1 3 5 3 1 -1 -1 -1 1 3 4 4 5 4 2 3 4 5 5 4
5 7 6 7 7 9 12 10 9 9 10 10 9 8 8 8 9 11 11 10 9 6 4 3 3 3 5 6 5 3 4 6 8 8 6 5 5 6 5 3 4 5 3 4 5 4 5 4 2 3 3 3 4 5 5 1 1 3 3 3 2 2 2 2 3 2 1 2 2 2 4 4 1 -2 -2 0 3 5 5 6 5 6 8 8 9 8 7 7
5 7 7 7 6 9 11 9 8 9 10 8 8 8 8 9 10 11 10 8 7 5 3 2 3 5 5 4 3 3 5 6 6 6 5 6 6 5 5 4 4 5 4 5 5 4 4 3 2 3 3 3 4 5 4 1 0 2 3 3 2 2 3 3 4 3 1 1 1 2 4 3 1 -1 0 2 4 3 3 4 6 19 22 7 6 10 6 4
5 6 7 7 6 9 9 8 9 8 7 7 8 9 9 10 12 11 10 8 8 8 7 5 4 4 3 1 3 5 4 4 5 6 5 5 5 5 5 5 4 5 5 4 5 5 4 3 3 2 3 4 4 4 4 2 1 1 3 4 4 5 4 4 4 3 2 1 0 3 5 3 1 2 3 3 3 2 2 2 3 16 14 -8 -4 8 6 10
5 5 7 8 8 8 7 8 9 7 6 7 9 10 11 12 13 13 11 8 8 9 9 6 2 1 2 3 5 5 3 3 5 5 4 5 5 5 6 6 5 5 4 3 6 5 2 3 4 3 4 5 3 4 4 4 4 4 6 6 6 5 4 4 4 3 4 1 -0 5 6 4 3 3 4 3 4 2 2 4 2 5 0 -8 0 7 10 19
5 5 7 9 9 7 7 8 7 7 7 7 10 11 11 12 12 12 10 8 8 7 7 6 3 3 4 4 3 3 4 4 4 4 4 5 5 5 6 6 5 6 5 4 5 5 4 5 5 5 5 4 4 5 5 6 7 7 7 6 6 6 5 6 4 4 6 2 2 8 7 5 3 2 3 3 3 2 3 5 3 2 0 1 3 5 22 25
4 5 7 9 11 8 7 8 6 7 7 7 10 10 10 11 10 11 10 8 9 7 7 7 6 5 5 4 3 4 4 5 5 5 5 5 5 5 6 5 5 7 6 5 6 6 6 6 6 6 6 5 6 8 8 9 8 6 6 5 5 5 5 5 4 5 7 4 6 8 5 4 3 2 5 6 6 7 8 8 8 10 10 12 10 8 23 14
4 5 6 8 11 10 8 7 6 7 7 7 9 9 10 9 8 10 9 7 8 9 9 8 7 5 4 4 4 4 5 6 6 6 6 6 5 5 6 5 6 8 7 7 8 8 7 7 7 8 8 9 9 9 8 6 5 5 4 5 5 4 5 5 4 6 7 6 9 9 8 9 8 10 14 15 15 14 14 12 10 11 10 10 11 7 11 7
5 5 5 7 11 11 9 7 6 7 7 8 9 9 9 8 8 10 8 8 9 10 9 7 6 5 5 5 5 6 7 6 6 6 6 6 6 6 6 7 7 8 8 8 8 8 8 8 9 9 8 8 7 6 5 4 5 5 4 6 6 8 11 9 9 12 12 12 14 14 16 16 13 15 17 16 16 14 13 13 10 10 10 8 10 8 6 8
6 6 5 7 10 11 9 7 7 7 7 8 8 8 9 8 9 9 8 9 9 8 7 6 6 5 6 6 6 7 7 7 7 6 6 6 6 7 7 8 9 8 9 8 6 6 6 5 6 7 7 8 7 6 6 5 5 4 7 9 10 15 18 15 16 16 14 15 13 13 15 14 12 14 14 12 12 12 12 13 13 12 13 11 9 10 8 6
7 7 5 7 11 11 8 6 7 7 7 8 8 8 8 8 8 8 9 9 8 7 6 7 7 6 6 6 6 6 6 8 7 6 7 7 7 7 8 9 8 8 8 6 5 4 4 4 5 6 5 5 6 5 5 6 8 10 12 13 13 15 15 14 16 16 15 16 12 13 14 13 14 14 13 11 11 13 14 13 14 12 12 12 10 10 10 9
8 7 5 9 11 10 7 7 7 7 8 8 8 9 8 8 8 8 8 7 6 7 6 7 7 7 7 6 7 7 7 7 7 7 7 6 6 6 7 8 7 7 7 5 5 4 4 6 7 7 6 7 8 9 10 12 14 14 13 13 13 12 10 9 10 11 13 14 11 12 12 9 10 9 9 12 13 14 15 14 14 14 13 13 13 11 10 9
9 7 6 9 10 8 7 8 8 8 9 9 8 8 7 7 8 8 7 5 6 6 6 7 6 7 8 7 7 7 7 7 6 5 5 5 6 6 6 7 6 6 6 6 7 6 7 10 12 13 15 16 14 12 13 12 12 13 13 13 12 11 11 10 9 8 7 8 8 9 9 7 8 8 8 11 12 12 13 12 12 13 13 12 12 12 11 10
8 7 9 10 9 9 8 8 9 9 9 8 8 7 6 7 8 7 6 6 6 6 6 6 6 6 6 6 7 7 6 6 4 4 5 4 6 7 8 8 7 8 8 8 10 12 12 11 13 15 14 13 11 10 11 11 11 13 13 12 11 9 9 8 9 12 9 7 7 8 9 8 9 12 14 14 13 14 12 12 13 13 13 13 12 13 13 13
8 8 10 10 9 9 8 9 9 8 8 7 7 7 6 6 6 6 6 6 7 7 6 6 6 6 6 6 6 5 5 5 5 6 6 6 9 9 9 9 9 11 11 11 13 14 13 11 12 13 10 8 10 10 11 12 11 10 8 8 8 8 10 8 8 15 16 14 13 12 11 10 10 13 15 14 13 12 11 11 13 12 12 12 11 12 13 14
10 10 10 9 8 8 9 9 8 7 6 6 6 6 5 5 6 6 7 7 7 6 6 6 6 6 6 5 5 5 6 6 7 8 8 10 11 9 9 10 11 12 11 12 13 13 11 10 11 13 12 11 12 11 11 10 8 8 8 10 11 11 12 11 10 12 14 11 11 14 13 10 11 13 13 13 12 12 13 13 12 11 12 12 11 11 10 10
10 9 8 9 8 9 9 7 6 6 5 5 5 5 5 6 7 7 7 6 6 6 6 6 6 5 5 5 6 7 7 8 9 9 10 10 9 9 11 11 11 11 11 12 12 11 9 9 12 14 13 11 10 9 9 8 8 10 12 11 11 11 11 11 10 8 6 4 7 11 11 10 13 15 13 12 13 15 15 15 15 15 16 16 17 17 16 14
9 9 9 9 8 8 7 5 5 5 5 5 6 6 7 7 7 6 6 6 6 6 5 5 5 5 5 6 8 10 9 10 10 9 10 10 10 12 12 11 11 10 10 10 10 10 9 9 10 10 9 7 7 7 8 10 12 13 13 13 13 13 13 11 9 8 6 5 8 11 9 9 13 12 8 9 12 14 13 13 14 15 16 17 19 20 21 21
9 10 9 8 7 6 5 4 6 5 6 6 6 7 7 6 6 6 6 6 6 5 5 5 6 7 8 9 10 10 9 8 9 9 11 11 11 12 10 9 10 10 10 10 8 8 8 7 6 6 8 11 11 11 11 10 10 10 11 13 13 11 11 9 9 12 9 5 10 11 5 7 10 7 6 11 13 14 13 11 11 11 12 11 12 13 15 17
10 9 8 6 5 5 4 5 6 6 7 7 6 7 6 6 6 6 5 5 5 5 7 9 10 10 10 9 8 9 9 9 11 11 11 11 9 9 9 8 9 9 10 10 9 8 7 7 8 6 6 7 6 7 7 6 8 10 9 9 7 5 6 6 6 8 5 6 13 9 2 6 8 5 9 12 12 12 9 6 6 9 10 9 9 10 12 13
10 8 6 5 5 5 6 7 6 6 7 7 6 6 6 6 6 4 5 6 8 10 10 10 9 8 9 9 10 10 10 11 11 10 8 8 7 8 9 9 9 10 9 9 8 7 6 8 10 10 9 10 10 9 9 10 11 12 10 7 5 4 5 4 4 4 5 9 13 8 3 6 7 7 11 12 11 11 9 7 8 11 13 12 12 12 11 12
9 7 5 6 7 6 6 6 6 7 7 6 5 5 5 5 6 7 9 10 10 9 8 8 8 9 11 12 11 11 10 10 9 7 7 8 9 11 11 12 11 10 8 6 5 5 6 9 10 11 14 17 17 17 15 14 13 12 9 7 5 6 6 5 6 10 11 8 9 10 6 4 9 12 10 8 11 11 10 10 10 11 12 12 12 12 11 12
8 6 7 7 6 6 6 6 6 6 5 5 6 6 8 9 10 10 9 8 8 8 8 10 11 12 12 10 9 9 8 8 7 8 10 12 13 13 13 12 9 7 5 4 4 5 7 10 11 11 12 11 11 11 9 10 11 8 5 4 5 5 6 9 13 15 12 5 6 14 10 3 11 15 7 7 12 11 10 10 8 7 6 3 4 7 9 11
7 6 6 6 6 6 6 5 5 5 6 8 9 9 10 10 8 7 7 8 9 10 11 12 11 10 9 7 8 8 7 8 10 12 13 13 13 12 9 7 5 4 4 3 6 9 10 13 12 10 10 9 7 7 7 7 6 3 4 5 6 6 9 14 15 11 9 7 8 13 12 7 12 14 9 11 14 12 11 12 9 9 7 6 7 9 10 12
6 6 6 5 5 5 5 6 7 9 9 10 9 9 8 6 6 8 9 10 12 11 11 10 9 8 7 6 7 6 7 10 12 13 12 11 10 8 5 3 2 3 4 5 9 11 11 12 9 8 9 8 6 5 5 4 2 3 5 5 6 10 11 12 10 6 9 13 12 12 12 11 13 13 12 14 13 12 12 10 7 6 7 9 12 13 13 13
6 6 6 5 6 6 8 10 10 9 9 7 7 7 7 7 10 12 11 11 12 11 9 9 7 6 6 5 6 8 10 12 11 10 10 9 6 3 2 3 3 2 4 7 10 10 10 11 9 8 8 5 3 3 2 2 3 4 6 7 9 12 9 7 8 8 11 15 13 10 10 11 13 12 10 9 7 7 8 9 9 8 7 8 8 9 10 10
6 7 7 8 9 10 10 10 8 7 7 6 7 8 10 11 11 11 11 10 10 9 7 7 6 5 5 6 9 12 13 13 13 12 8 5 2 1 1 1 3 4 7 10 11 10 10 11 8 7 6 3 3 3 2 3 5 6 9 11 10 8 6 7 10 11 14 15 12 9 10 11 11 9 7 7 6 7 8 10 11 11 10 11 12 11 12 11
8 9 9 10 10 9 8 7 7 7 7 8 9 10 11 11 11 11 10 8 7 7 6 6 6 6 8 11 13 15 15 16 15 11 7 4 2 2 2 3 5 8 9 10 10 9 9 8 6 5 4 3 2 2 2 5 7 10 11 8 5 5 9 11 12 15 18 18 15 14 14 13 10 9 10 11 11 11 12 11 11 13 13 15 16 16 15 14
10 9 9 8 7 6 7 7 7 8 9 10 11 12 11 10 9 8 7 6 6 6 5 6 7 9 12 15 15 16 16 13 9 5 4 3 2 3 4 6 9 9 9 10 9 8 9 7 5 5 3 2 2 2 4 7 9 10 7 4 6 12 16 15 14 17 19 16 14 14 13 11 10 11 13 14 13 13 15 16 19 22 23 22 22 21 19 17
Height
5761 5763 5764 5765 5766 5768 5769 5770 5772 5774 5775 5776 5777 5778 5780 5781 5782 5783 5784 5785 5785 5786 5786 5787 5787 5788 5788 5788 5789 5789 5789 5789 5789 5789 5789 5790 5789 5789 5789 5789 5789 5788 5788 5787 5787 5786 5785 5785 5784 5783 5782 5781 5781 5780 5779 5778 5777 5776 5776 5775 5774 5772 5771 5770 5769 5768 5768 5767 5766 5765 5763 5762 5761 5760 5759 5759 5758 5758 5757 5756 5754 5753 5753 5753 5752 5751 5751 5751
5759 5761 5762 5763 5764 5765 5767 5769 5770 5772 5773 5775 5776 5777 5778 5779 5780 5781 5782 5783 5784 5784 5784 5785 5786 5786 5786 5787 5787 5788 5788 5788 5788 5788 5788 5787 5787 5787 5787 5787 5787 5787 5786 5786 5785 5784 5783 5783 5782 5781 5780 5779 5778 5777 5777 5776 5775 5774 5773 5773 5771 5770 5769 5768 5767 5766 5765 5764 5763 5762 5761 5760 5758 5757 5757 5756 5756 5755 5755 5753 5750 5749 5749 5749 5748 5747 5748 5748
5758 5759 5761 5762 5762 5763 5765 5767 5769 5770 5772 5773 5774 5775 5777 5778 5779 5780 5781 5782 5782 5782 5783 5784 5784 5785 5785 5786 5786 5786 5786 5786 5786 5786 5786 5786 5786 5786 5786 5786 5785 5785 5784 5784 5783 5782 5781 5780 5780 5779 5778 5777 5776 5775 5774 5774 5773 5773 5772 5770 5769 5768 5767 5766 5764 5763 5762 5761 5760 5759 5758 5757 5756 5755 5754 5753 5753 5754 5753 5749 5747 5746 5746 5744 5744 5744 5744 5745
5757 5758 5760 5760 5761 5762 5764 5765 5767 5769 5770 5772 5773 5774 5775 5776 5777 5778 5779 5780 5780 5781 5781 5782 5783 5783 5784 5784 5785 5784 5784 5785 5785 5785 5785 5785 5785 5785 5784 5784 5783 5783 5782 5782 5781 5780 5779 5778 5777 5777 5776 5775 5774 5773 5772 5772 5771 5771 5770 5768 5767 5765 5765 5763 5762 5760 5759 5758 5757 5755 5754 5754 5753 5752 5751 5750 5751 5752 5748 5744 5743 5742 5742 5741 5740 5741 5741 5742
5756 5757 5758 5759 5760 5761 5763 5764 5766 5768 5769 5770 5771 5772 5774 5775 5776 5777 5777 5778 5778 5779 5780 5780 5781 5782 5783 5783 5783 5783 5783 5783 5783 5783 5783 5783 5783 5783 5783 5782 5782 5781 5781 5780 5779 5778 5777 5776 5776 5775 5774 5773 5772 5771 5770 5769 5769 5768 5767 5766 5764 5763 5762 5761 5759 5758 5756 5755 5753 5752 5751 5750 5750 5749 5749 5748 5748 5747 5743 5741 5740 5738 5738 5738 5738 5738 5737 5737
5755 5756 5757 5758 5759 5761 5762 5764 5765 5767 5768 5769 5770 5771 5773 5774 5775 5775 5776 5776 5777 5778 5778 5779 5780 5781 5781 5782 5782 5782 5782 5782 5782 5782 5782 5782 5782 5781 5781 5780 5780 5779 5779 5778 5777 5776 5776 5775 5774 5774 5773 5771 5770 5769 5768 5767 5766 5766 5765 5763 5762 5761 5760 5758 5756 5755 5753 5751 5750 5748 5747 5747 5746 5746 5746 5745 5743 5741 5738 5737 5737 5737 5736 5735 5735 5734 5733 5732
5755 5756 5757 5758 5759 5760 5762 5763 5764 5766 5767 5769 5770 5771 5772 5773 5774 5774 5775 5775 5776 5777 5777 5778 5779 5780 5780 5780 5780 5780 5780 5780 5780 5780 5780 5780 5780 5780 5779 5779 5778 5778 5777 5776 5776 5775 5774 5774 5773 5772 5771 5770 5768 5767 5766 5765 5764 5763 5762 5760 5759 5758 5756 5755 5753 5752 5750 5748 5747 5745 5744 5744 5743 5742 5743 5741 5738 5735 5734 5734 5734 5734 5733 5732 5731 5730 5729 5728
5754 5755 5756 5757 5758 5760 5761 5763 5764 5765 5767 5768 5769 5770 5772 5773 5773 5774 5774 5774 5775 5776 5777 5777 5778 5778 5779 5779 5779 5779 5779 5779 5779 5779 5779 5779 5779 5778 5778 5778 5777 5777 5776 5775 5774 5774 5773 5772 5771 5770 5769 5768 5766 5765 5764 5763 5762 5760 5759 5758 5756 5755 5753 5752 5750 5748 5747 5745 5744 5742 5742 5741 5740 5739 5739 5736 5733 5732 5732 5732 5731 5730 5729 5729 5728 5726 5725 5725
5754 5755 5756 5757 5758 5760 5761 5762 5764 5765 5767 5768 5769 5770 5771 5772 5772 5773 5773 5774 5774 5775 5776 5777 5777 5777 5777 5777 5777 5777 5778 5777 5777 5777 5777 5777 5777 5777 5777 5776 5776 5775 5774 5773 5773 5771 5770 5770 5769 5768 5767 5766 5764 5763 5762 5760 5759 5758 5756 5755 5754 5752 5751 5749 5747 5746 5744 5743 5741 5740 5740 5739 5737 5736 5734 5732 5730 5730 5729 5728 5727 5727 5726 5725 5724 5723 5722 5721
5754 5755 5756 5757 5758 5760 5761 5762 5763 5765 5766 5767 5768 5769 5770 5771 5771 5772 5772 5773 5773 5774 5775 5775 5776 5776 5776 5776 5776 5776 5776 5776 5776 5776 5776 5776 5775 5775 5775 5774 5774 5773 5772 5771 5770 5769 5768 5767 5766 5765 5764 5763 5762 5761 5760 5758 5757 5755 5754 5753 5751 5750 5748 5746 5744 5743 5742 5740 5739 5737 5738 5737 5734 5733 5731 5729 5728 5728 5727 5726 5725 5724 5723 5721 5720 5719 5718 5717
5754 5755 5756 5757 5758 5759 5760 5761 5762 5764 5765 5766 5767 5768 5769 5769 5770 5771 5771 5772 5772 5773 5773 5774 5774 5775 5775 5775 5775 5775 5775 5775 5775 5774 5774 5774 5774 5774 5773 5772 5771 5771 5770 5769 5768 5767 5766 5765 5764 5763 5762 5761 5760 5758 5757 5755 5754 5752 5751 5750 5748 5747 5746 5743 5742 5741 5739 5738 5736 5735 5736 5734 5732 5729 5728 5727 5726 5725 5724 5723 5722 5721 5719 5718 5716 5715 5714 5713
5754 5755 5755 5756 5757 5758 5759 5760 5761 5763 5764 5765 5766 5767 5768 5768 5769 5769 5770 5771 5771 5772 5773 5773 5773 5773 5774 5774 5773 5773 5773 5773 5773 5773 5773 5772 5772 5772 5771 5770 5769 5769 5768 5767 5766 5765 5764 5763 5761 5760 5759 5758 5757 5756 5754 5753 5751 5750 5749 5748 5746 5744 5743 5741 5740 5738 5737 5736 5734 5733 5733 5732 5729 5727 5725 5725 5723 5722 5722 5720 5719 5717 5716 5714 5713 5712 5711 5710
5753 5754 5755 5756 5756 5757 5758 5759 5761 5762 5763 5764 5765 5766 5767 5767 5767 5768 5769 5770 5771 5771 5771 5772 5772 5772 5772 5772 5772 5772 5772 5772 5772 5772 5772 5771 5770 5770 5769 5768 5768 5767 5766 5765 5764 5762 5761 5760 5759 5758 5757 5756 5754 5753 5752 5750 5749 5748 5747 5745 5744 5743 5741 5738 5737 5736 5734 5733 5732 5731 5731 5729 5727 5725 5723 5721 5721 5720 5719 5717 5715 5714 5712 5711 5709 5709 5707 5706
5754 5754 5755 5755 5756 5757 5758 5759 5761 5762 5763 5764 5765 5765 5766 5766 5766 5767 5768 5769 5769 5770 5770 5770 5771 5771 5771 5771 5771 5771 5771 5771 5771 5771 5771 5770 5769 5768 5768 5767 5766 5765 5764 5763 5761 5760 5759 5758 5757 5756 5754 5753 5752 5751 5749 5748 5746 5745 5744 5743 5742 5741 5739 5737 5736 5734 5732 5731 5730 5729 5729 5727 5725 5722 5720 5718 5718 5718 5716 5714 5712 5711 5709 5707 5706 5705 5703 5701
5754 5754 5755 5755 5756 5757 5758 5759 5760 5761 5762 5763 5764 5764 5764 5765 5766 5766 5767 5768 5768 5768 5769 5769 5769 5770 5770 5770 5770 5770 5770 5770 5770 5770 5769 5768 5768 5767 5766 5765 5764 5763 5762 5761 5759 5758 5757 5756 5754 5753 5752 5751 5749 5748 5747 5746 5744 5743 5742 5741 5739 5738 5737 5734 5734 5732 5730 5729 5728 5726 5726 5726 5723 5720 5718 5716 5715 5715 5714 5712 5709 5707 5705 5703 5701 5699 5698 5695
5754 5755 5755 5755 5756 5757 5758 5759 5760 5761 5761 5762 5762 5763 5763 5764 5765 5765 5766 5766 5767 5767 5768 5768 5769 5769 5769 5769 5769 5769 5769 5769 5769 5768 5768 5767 5766 5765 5764 5763 5762 5761 5760 5759 5757 5756 5755 5754 5752 5751 5750 5748 5747 5746 5745 5743 5742 5741 5740 5739 5737 5736 5734 5732 5731 5730 5728 5727 5726 5724 5724 5724 5722 5719 5716 5713 5712 5712 5711 5709 5707 5704 5701 5698 5696 5694 5692 5690
5754 5755 5755 5755 5755 5756 5757 5758 5759 5760 5760 5761 5761 5762 5762 5763 5763 5764 5765 5765 5766 5766 5767 5767 5768 5768 5768 5768 5768 5768 5768 5767 5767 5767 5766 5765 5764 5764 5763 5762 5760 5759 5758 5756 5755 5754 5753 5751 5750 5749 5747 5746 5745 5744 5743 5741 5740 5738 5737 5736 5735 5733 5732 5730 5728 5728 5726 5724 5724 5722 5721 5722 5720 5717 5715 5711 5709 5709 5707 5705 5702 5699 5696 5694 5691 5690 5688 5686
5754 5755 5755 5755 5755 5756 5757 5758 5758 5759 5760 5760 5761 5761 5762 5762 5762 5763 5763 5764 5764 5765 5766 5766 5767 5767 5768 5767 5767 5767 5767 5766 5766 5765 5764 5763 5762 5762 5761 5760 5759 5757 5756 5754 5753 5751 5750 5749 5748 5746 5745 5744 5743 5742 5740 5739 5738 5736 5735 5734 5732 5731 5729 5727 5725 5725 5722 5721 5721 5719 5718 5719 5719 5716 5713 5709 5706 5705 5703 5700 5698 5694 5692 5691 5689 5688 5686 5685
5754 5755 5755 5755 5755 5756 5756 5757 5758 5758 5759 5759 5760 5760 5761 5761 5762 5762 5763 5763 5763 5764 5765 5765 5766 5767 5767 5766 5766 5766 5765 5765 5764 5763 5762 5761 5761 5760 5759 5758 5756 5755 5754 5752 5751 5749 5748 5747 5746 5744 5743 5742 5741 5739 5738 5736 5735 5734 5732 5731 5729 5728 5727 5725 5723 5721 5719 5717 5718 5716 5714 5715 5716 5715 5713 5708 5704 5700 5698 5696 5694 5692 5690 5688 5687 5686 5685 5683
5754 5754 5755 5755 5755 5755 5756 5756 5757 5757 5758 5758 5759 5759 5760 5761 5761 5762 5762 5762 5763 5763 5764 5765 5765 5766 5766 5765 5765 5765 5764 5763 5762 5761 5760 5759 5759 5758 5757 5755 5754 5753 5752 5750 5749 5747 5746 5745 5743 5742 5741 5739 5738 5737 5735 5734 5732 5731 5729 5728 5726 5725 5724 5722 5720 5718 5716 5713 5714 5713 5710 5711 5712 5712 5711 5706 5700 5696 5695 5693 5690 5688 5686 5685 5684 5683 5682 5680
5754 5754 5754 5754 5755 5755 5755 5756 5756 5757 5757 5758 5758 5759 5759 5760 5761 5761 5761 5762 5762 5763 5764 5764 5764 5764 5764 5764 5763 5763 5762 5761 5760 5759 5759 5757 5757 5756 5755 5753 5752 5751 5749 5748 5747 5745 5744 5742 5741 5740 5738 5737 5736 5734 5733 5731 5729 5727 5726 5725 5724 5722 5720 5719 5716 5715 5712 5709 5709 5708 5705 5706 5708 5708 5707 5700 5696 5694 5692 5690 5687 5684 5682 5681 5680 5678 5677 5675
5754 5754 5754 5754 5755 5755 5756 5756 5756 5756 5757 5757 5758 5758 5759 5760 5760 5761 5761 5761 5762 5762 5763 5763 5763 5763 5763 5762 5762 5761 5760 5759 5758 5757 5757 5755 5755 5753 5752 5751 5750 5748 5747 5745 5744 5743 5742 5739 5738 5737 5736 5734 5733 5731 5730 5728 5725 5724 5722 5721 5720 5718 5715 5714 5713 5711 5708 5705 5704 5703 5700 5701 5703 5703 5700 5695 5692 5690 5688 5687 5684 5682 5679 5677 5675 5672 5671 5670
5753 5754 5754 5754 5755 5755 5756 5756 5756 5756 5756 5757 5757 5758 5759 5760 5760 5760 5760 5760 5761 5761 5762 5762 5762 5761 5761 5761 5760 5759 5758 5757 5756 5756 5754 5753 5753 5751 5750 5749 5747 5746 5744 5743 5742 5741 5740 5737 5735 5735 5733 5731 5730 5729 5727 5724 5722 5720 5719 5717 5716 5714 5711 5709 5708 5706 5704 5701 5699 5697 5694 5695 5697 5696 5692 5689 5689 5686 5683 5682 5681 5679 5677 5674 5672 5669 5666 5664
5753 5754 5754 5755 5755 5755 5755 5755 5755 5755 5756 5756 5757 5757 5758 5759 5759 5759 5759 5759 5760 5760 5760 5760 5760 5760 5759 5759 5758 5757 5756 5755 5754 5753 5752 5751 5750 5749 5748 5747 5745 5743 5741 5740 5739 5739 5738 5734 5733 5732 5730 5728 5727 5725 5723 5720 5718 5717 5715 5713 5711 5709 5707 5704 5703 5700 5699 5696 5694 5691 5688 5689 5691 5688 5682 5680 5681 5679 5677 5677 5676 5674 5672 5670 5668 5665 5662 5659
5754 5754 5755 5755 5755 5755 5754 5754 5754 5755 5755 5756 5756 5757 5758 5758 5758 5758 5758 5758 5759 5759 5759 5759 5759 5758 5758 5757 5756 5755 5754 5753 5752 5751 5750 5749 5748 5747 5746 5744 5742 5741 5739 5738 5736 5736 5735 5732 5730 5728 5727 5725 5723 5722 5719 5716 5714 5713 5712 5709 5707 5705 5702 5700 5698 5695 5693 5691 5688 5685 5682 5683 5685 5682 5674 5670 5669 5669 5669 5669 5668 5666 5665 5664 5662 5659 5657 5655
5754 5754 5755 5755 5755 5754 5754 5754 5754 5755 5755 5755 5756 5756 5757 5757 5757 5757 5757 5757 5758 5758 5758 5757 5757 5757 5756 5755 5754 5753 5752 5751 5750 5749 5748 5747 5746 5745 5743 5742 5740 5738 5737 5735 5734 5733 5732 5729 5727 5725 5723 5722 5720 5718 5715 5712 5710 5709 5708 5705 5702 5700 5698 5695 5693 5690 5688 5686 5683 5679 5675 5676 5678 5676 5670 5665 5661 5659 5658 5658 5657 5656 5654 5653 5654 5653 5651 5649
5754 5755 5755 5755 5754 5754 5754 5754 5754 5755 5755 5755 5755 5755 5756 5756 5756 5756 5756 5757 5757 5757 5756 5756 5755 5755 5754 5753 5752 5751 5750 5749 5748 5747 5745 5745 5743 5742 5741 5739 5737 5736 5734 5732 5731 5730 5728 5725 5724 5722 5720 5718 5716 5714 5711 5708 5706 5704 5702 5700 5697 5695 5692 5690 5687 5684 5682 5681 5678 5675 5671 5668 5669 5670 5666 5661 5658 5655 5652 5649 5647 5646 5645 5641 5641 5643 5642 5641
5754 5755 5754 5754 5754 5754 5754 5754 5754 5754 5754 5755 5755 5755 5755 5755 5756 5756 5756 5756 5756 5755 5755 5754 5754 5753 5752 5751 5750 5749 5748 5747 5746 5744 5743 5742 5741 5739 5738 5737 5735 5733 5731 5729 5728 5726 5724 5722 5720 5718 5716 5714 5712 5709 5706 5704 5701 5699 5696 5694 5691 5689 5686 5684 5681 5678 5676 5673 5672 5671 5667 5660 5658 5661 5660 5655 5654 5651 5648 5645 5641 5638 5636 5632 5629 5629 5630 5629
5754 5754 5754 5754 5754 5754 5754 5753 5754 5754 5754 5754 5755 5755 5755 5755 5755 5755 5755 5755 5754 5753 5753 5752 5752 5751 5749 5748 5747 5747 5745 5744 5743 5742 5741 5740 5738 5737 5735 5734 5732 5730 5728 5726 5724 5722 5720 5718 5717 5714 5712 5709 5707 5704 5701 5699 5695 5693 5690 5687 5685 5682 5680 5677 5675 5672 5669 5666 5666 5665 5661 5653 5648 5651 5652 5649 5647 5645 5641 5639 5635 5631 5628 5625 5622 5620 5618 5618
5754 5754 5754 5754 5753 5753 5753 5753 5754 5754 5754 5754 5754 5754 5754 5754 5754 5754 5754 5753 5752 5752 5751 5750 5749 5748 5747 5746 5745 5744 5743 5742 5740 5739 5738 5737 5735 5734 5732 5730 5728 5727 5725 5723 5721 5719 5716 5714 5712 5710 5706 5704 5701 5699 5696 5693 5690 5686 5683 5681 5678 5675 5673 5671 5669 5666 5662 5659 5660 5659 5654 5648 5641 5641 5643 5641 5638 5637 5634 5630 5627 5623 5619 5616 5613 5611 5610 5608
5754 5754 5753 5753 5753 5752 5753 5753 5753 5754 5754 5754 5754 5754 5753 5753 5753 5752 5752 5751 5750 5750 5749 5748 5747 5746 5745 5744 5743 5741 5740 5739 5737 5736 5734 5733 5732 5730 5729 5727 5725 5724 5722 5720 5718 5715 5713 5710 5708 5705 5702 5699 5696 5693 5691 5688 5684 5680 5677 5673 5670 5668 5665 5663 5662 5659 5655 5653 5653 5651 5647 5641 5634 5632 5633 5632 5629 5626 5623 5620 5617 5613 5610 5607 5603 5601 5600 5598
5753 5753 5753 5752 5752 5752 5752 5753 5753 5753 5753 5753 5753 5752 5752 5751 5751 5750 5750 5749 5748 5748 5747 5746 5744 5743 5743 5742 5741 5739 5738 5736 5734 5733 5731 5729 5728 5726 5725 5723 5722 5720 5718 5717 5715 5713 5709 5706 5704 5701 5697 5694 5691 5688 5685 5682 5678 5674 5671 5667 5662 5659 5656 5653 5653 5650 5646 5645 5643 5641 5638 5632 5627 5624 5623 5622 5619 5615 5612 5610 5608 5605 5601 5598 5595 5592 5589 5587
5753 5752 5752 5752 5752 5752 5752 5752 5752 5752 5752 5752 5751 5751 5750 5750 5749 5748 5748 5747 5746 5745 5745 5744 5742 5742 5741 5740 5738 5737 5735 5733 5731 5730 5728 5726 5725 5723 5721 5720 5718 5716 5714 5712 5710 5708 5705 5701 5698 5695 5692 5688 5685 5681 5678 5675 5672 5668 5665 5660 5655 5651 5645 5642 5643 5640 5636 5636 5634 5633 5628 5622 5620 5618 5615 5613 5609 5606 5604 5601 5598 5595 5592 5589 5586 5583 5580 5578
5752 5752 5752 5752 5752 5751 5751 5751 5751 5751 5751 5751 5750 5749 5749 5748 5747 5747 5746 5745 5744 5743 5743 5742 5741 5740 5739 5737 5736 5734 5732 5730 5728 5727 5725 5723 5721 5719 5717 5716 5714 5712 5710 5707 5705 5703 5701 5696 5692 5688 5685 5680 5677 5674 5671 5667 5664 5661 5658 5653 5649 5645 5638 5633 5633 5630 5627 5625 5625 5626 5620 5613 5611 5609 5607 5605 5601 5598 5596 5592 5589 5585 5582 5580 5577 5574 5571 5569
5752 5752 5752 5751 5751 5751 5751 5751 5750 5750 5750 5749 5749 5748 5747 5747 5746 5745 5744 5743 5742 5741 5741 5740 5739 5738 5736 5735 5733 5731 5730 5727 5725 5723 5722 5720 5718 5716 5714 5711 5709 5707 5704 5702 5700 5698 5698 5694 5688 5684 5680 5676 5670 5666 5663 5660 5657 5653 5651 5647 5642 5639 5633 5627 5625 5622 5618 5613 5614 5617 5613 5607 5604 5600 5598 5597 5593 5590 5587 5583 5580 5576 5573 5570 5567 5564 5562 5559
5752 5751 5751 5750 5750 5750 5750 5750 5749 5749 5748 5748 5747 5746 5745 5745 5744 5744 5743 5742 5741 5740 5739 5738 5737 5735 5734 5732 5730 5728 5727 5724 5722 5720 5718 5716 5714 5712 5710 5707 5704 5702 5698 5696 5694 5692 5692 5691 5686 5679 5675 5672 5667 5662 5658 5654 5651 5647 5644 5640 5636 5632 5628 5622 5618 5616 5611 5604 5604 5607 5604 5600 5596 5591 5590 5589 5584 5581 5577 5574 5570 5566 5563 5560 5556 5553 5551 5548
5751 5750 5750 5750 5749 5749 5749 5749 5748 5748 5747 5746 5745 5745 5744 5743 5743 5742 5741 5740 5739 5739 5737 5736 5735 5733 5732 5730 5728 5726 5724 5721 5719 5717 5714 5712 5710 5707 5705 5702 5699 5696 5693 5690 5688 5685 5684 5686 5683 5675 5669 5665 5662 5658 5654 5650 5646 5642 5638 5634 5630 5626 5622 5616 5610 5608 5604 5598 5595 5597 5595 5592 5588 5583 5580 5580 5576 5571 5567 5564 5560 5557 5553 5550 5546 5543 5539 5537
5750 5750 5749 5749 5749 5748 5748 5748 5747 5746 5745 5745 5744 5743 5742 5742 5741 5740 5739 5739 5738 5737 5735 5734 5733 5731 5729 5728 5725 5723 5721 5719 5716 5714 5711 5708 5706 5703 5700 5697 5694 5691 5688 5685 5682 5678 5676 5677 5678 5672 5664 5659 5656 5653 5649 5645 5641 5637 5633 5629 5624 5619 5615 5610 5604 5599 5595 5589 5586 5587 5586 5584 5581 5576 5572 5570 5567 5562 5558 5555 5551 5547 5544 5540 5537 5534 5530 5526
5749 5749 5748 5748 5748 5747 5747 5746 5745 5745 5744 5743 5742 5741 5741 5740 5739 5739 5738 5737 5736 5734 5733 5731 5730 5728 5726 5724 5722 5719 5717 5715 5713 5710 5708 5705 5702 5699 5696 5692 5689 5685 5682 5679 5676 5673 5669 5668 5669 5667 5660 5655 5651 5648 5645 5640 5636 5632 5627 5623 5618 5613 5608 5604 5600 5594 5588 5582 5578 5575 5576 5576 5574 5570 5565 5562 5559 5554 5550 5546 5541 5537 5533 5530 5527 5524 5520 5517
5748 5748 5747 5747 5746 5746 5745 5744 5744 5743 5742 5742 5741 5740 5739 5739 5738 5737 5736 5735 5734 5732 5730 5729 5727 5725 5723 5721 5718 5715 5713 5711 5708 5706 5703 5700 5697 5694 5691 5688 5684 5680 5677 5674 5671 5668 5665 5661 5661 5660 5656 5651 5646 5642 5639 5636 5631 5626 5622 5617 5612 5608 5603 5597 5595 5591 5584 5578 5573 5566 5564 5567 5566 5561 5556 5553 5549 5545 5540 5536 5531 5526 5522 5519 5516 5513 5509 5506
5747 5746 5746 5746 5745 5744 5744 5743 5743 5742 5741 5740 5739 5739 5738 5737 5736 5735 5734 5733 5731 5730 5728 5726 5724 5722 5719 5717 5714 5712 5709 5706 5704 5701 5699 5696 5692 5689 5686 5682 5680 5676 5673 5670 5666 5663 5660 5656 5654 5653 5650 5646 5641 5637 5633 5629 5625 5620 5616 5611 5606 5602 5598 5591 5587 5585 5580 5574 5569 5560 5553 5555 5556 5551 5546 5543 5538 5534 5530 5525 5521 5516 5511 5507 5504 5502 5499 5496
5746 5745 5745 5744 5744 5743 5743 5742 5741 5740 5740 5739 5738 5737 5737 5736 5734 5733 5732 5730 5728 5727 5725 5722 5720 5718 5715 5713 5711 5708 5705 5702 5699 5697 5694 5691 5688 5685 5681 5677 5675 5671 5668 5665 5661 5657 5654 5652 5649 5647 5644 5639 5634 5631 5628 5624 5620 5615 5610 5605 5600 5596 5592 5586 5581 5577 5573 5569 5564 5555 5547 5544 5544 5540 5535 5532 5528 5523 5518 5514 5510 5505 5501 5496 5493 5490 5488 5486
5745 5744 5744 5743 5743 5742 5741 5741 5740 5739 5739 5738 5737 5736 5735 5733 5732 5731 5729 5727 5725 5723 5721 5719 5717 5714 5712 5709 5707 5704 5701 5698 5695 5693 5690 5687 5683 5680 5677 5673 5670 5666 5663 5660 5656 5653 5649 5646 5643 5641 5639 5635 5630 5626 5622 5619 5615 5609 5604 5599 5595 5590 5585 5580 5574 5568 5563 5562 5557 5548 5542 5537 5532 5529 5526 5521 5517 5513 5508 5504 5500 5495 5491 5486 5481 5478 5477 5475
5744 5743 5743 5742 5742 5741 5740 5740 5739 5738 5737 5736 5735 5734 5733 5731 5730 5728 5726 5724 5722 5720 5718 5716 5714 5711 5708 5706 5703 5700 5697 5695 5691 5688 5685 5682 5679 5676 5672 5669 5666 5662 5659 5655 5652 5648 5644 5640 5636 5633 5631 5628 5624 5619 5614 5610 5607 5602 5597 5593 5589 5584 5579 5572 5567 5560 5553 5552 5548 5539 5534 5530 5523 5518 5517 5512 5507 5503 5499 5494 5489 5484 5480 5475 5470 5467 5465 5463
5743 5743 5742 5742 5741 5740 5739 5739 5738 5737 5736 5735 5733 5732 5730 5729 5727 5725 5724 5722 5720 5717 5715 5713 5711 5708 5705 5702 5699 5697 5694 5691 5688 5684 5682 5678 5675 5672 5669 5665 5662 5658 5655 5652 5648 5644 5640 5636 5631 5627 5622 5618 5615 5612 5606 5602 5600 5595 5590 5585 5581 5577 5573 5566 5561 5554 5546 5543 5541 5533 5524 5522 5518 5509 5504 5502 5498 5493 5489 5485 5480 5475 5470 5465 5459 5456 5454 5452
5742 5742 5741 5741 5740 5739 5738 5737 5736 5735 5734 5733 5731 5730 5728 5726 5724 5723 5721 5719 5717 5715 5712 5710 5707 5705 5702 5699 5696 5693 5690 5688 5685 5681 5678 5675 5671 5668 5665 5661 5658 5655 5651 5648 5644 5640 5636 5632 5627 5623 5619 5614 5609 5606 5602 5597 5593 5589 5583 5578 5573 5568 5564 5559 5552 5547 5540 5534 5532 5527 5516 5511 5511 5503 5494 5491 5488 5483 5480 5476 5472 5468 5463 5457 5451 5447 5444 5442
5741 5741 5740 5740 5739 5738 5737 5736 5735 5733 5732 5730 5729 5727 5725 5724 5722 5720 5718 5716 5714 5712 5709 5707 5704 5702 5699 5696 5693 5690 5687 5684 5681 5678 5675 5671 5667 5664 5661 5658 5655 5651 5648 5644 5639 5635 5631 5627 5623 5619 5615 5610 5605 5601 5597 5591 5586 5581 5576 5571 5566 5560 5555 5550 5543 5537 5532 5523 5519 5517 5509 5501 5499 5494 5485 5481 5477 5472 5469 5466 5462 5458 5453 5448 5443 5439 5436 5432
5740 5740 5739 5738 5737 5736 5735 5734 5733 5731 5730 5728 5726 5724 5723 5721 5719 5717 5715 5713 5711 5709 5706 5704 5702 5699 5696 5694 5691 5688 5684 5681 5678 5674 5671 5668 5664 5661 5658 5655 5651 5647 5644 5639 5635 5630 5626 5621 5618 5614 5610 5605 5599 5595 5590 5585 5579 5573 5568 5562 5557 5551 5546 5542 5536 5528 5522 5514 5506 5502 5498 5492 5486 5481 5476 5470 5465 5460 5457 5454 5451 5447 5442 5437 5433 5429 5427 5423
5739 5739 5738 5737 5736 5735 5734 5732 5731 5729 5728 5726 5724 5722 5720 5718 5717 5715 5712 5710 5708 5706 5704 5701 5699 5696 5693 5691 5688 5685 5682 5678 5675 5671 5668 5664 5661 5658 5654 5650 5647 5643 5639 5634 5630 5625 5621 5616 5611 5608 5605 5600 5594 5589 5584 5578 5572 5566 5560 5554 5549 5543 5538 5533 5528 5521 5513 5506 5499 5491 5486 5483 5477 5471 5467 5461 5454 5450 5445 5440 5438 5436 5431 5426 5422 5419 5415 5412
5738 5737 5736 5735 5734 5733 5732 5730 5729 5727 5726 5724 5722 5721 5718 5716 5714 5712 5710 5708 5705 5703 5701 5698 5695 5693 5690 5687 5684 5681 5678 5675 5671 5668 5664 5661 5657 5654 5650 5646 5641 5637 5633 5629 5625 5620 5615 5610 5605 5601 5598 5594 5589 5583 5577 5570 5564 5558 5551 5545 5540 5535 5530 5525 5519 5513 5504 5497 5492 5486 5479 5474 5469 5462 5457 5452 5445 5440 5436 5430 5425 5423 5418 5412 5409 5408 5403 5399
5737 5736 5735 5734 5733 5732 5730 5729 5727 5725 5724 5722 5720 5718 5716 5714 5712 5709 5707 5705 5703 5700 5698 5695 5692 5689 5686 5683 5680 5677 5674 5670 5667 5664 5661 5657 5654 5650 5646 5642 5637 5633 5628 5623 5619 5614 5609 5604 5599 5594 5591 5587 5581 5575 5569 5562 5555 5550 5543 5537 5531 5525 5520 5515 5510 5505 5494 5484 5479 5476 5470 5465 5459 5452 5447 5442 5436 5429 5425 5420 5415 5411 5406 5399 5396 5395 5391 5387
5736 5735 5734 5732 5731 5730 5729 5727 5725 5724 5722 5720 5718 5716 5714 5712 5709 5707 5705 5702 5700 5698 5695 5692 5689 5686 5682 5679 5676 5673 5670 5666 5663 5660 5657 5654 5650 5646 5642 5637 5632 5627 5623 5618 5613 5609 5604 5598 5593 5587 5582 5579 5573 5567 5562 5554 5546 5540 5534 5527 5520 5514 5509 5506 5503 5500 5490 5476 5467 5463 5458 5453 5447 5441 5434 5429 5424 5418 5412 5407 5403 5397 5393 5388 5384 5381 5378 5375